TimeEDT,TemperatureF,Dew PointF,Humidity,Sea Level PressureIn,VisibilityMPH,Wind Direction,Wind SpeedMPH,Gust SpeedMPH,PrecipitationIn,Events,Conditions,WindDirDegrees,DateUTC
12:54 AM,61.0,60.1,97,30.15,0.2,Calm,Calm,-,N/A,Fog,Fog,0,2013-05-20 04:54:00
1:54 AM,60.1,60.1,100,30.13,0.5,Calm,Calm,-,N/A,Fog,Fog,0,2013-05-20 05:54:00
2:54 AM,60.1,60.1,100,30.10,0.2,Calm,Calm,-,0.01,Fog,Fog,0,2013-05-20 06:54:00
4:54 AM,61.0,60.1,97,30.09,0.2,Calm,Calm,-,N/A,Fog,Fog,0,2013-05-20 08:54:00
5:54 AM,61.0,60.1,97,30.08,0.2,Calm,Calm,-,N/A,Fog,Fog,0,2013-05-20 09:54:00
6:54 AM,62.1,61.0,96,30.10,0.2,Calm,Calm,-,N/A,Fog,Fog,0,2013-05-20 10:54:00
7:31 AM,62.6,62.6,100,30.11,1.2,Calm,Calm,-,N/A,,Overcast,0,2013-05-20 11:31:00
8:15 AM,62.6,62.6,100,30.12,1.2,Calm,Calm,-,N/A,,Overcast,0,2013-05-20 12:15:00
8:26 AM,62.6,62.6,100,30.11,1.0,Calm,Calm,-,N/A,,Overcast,0,2013-05-20 12:26:00
8:42 AM,62.6,62.6,100,30.12,0.8,Calm,Calm,-,N/A,,Overcast,0,2013-05-20 12:42:00
8:50 AM,64.4,62.6,94,30.12,1.2,NNE,3.5,-,N/A,,Overcast,20,2013-05-20 12:50:00
8:54 AM,63.0,62.1,97,30.12,1.5,Calm,Calm,-,N/A,,Overcast,0,2013-05-20 12:54:00
9:11 AM,64.4,62.6,94,30.11,2.0,Calm,Calm,-,N/A,,Overcast,0,2013-05-20 13:11:00
9:45 AM,64.4,64.4,100,30.11,3.0,Calm,Calm,-,N/A,,Overcast,0,2013-05-20 13:45:00
10:32 AM,66.2,64.4,94,30.10,3.0,Calm,Calm,-,N/A,,Overcast,0,2013-05-20 14:32:00
10:40 AM,68.0,64.4,88,30.10,3.0,Calm,Calm,-,N/A,,Overcast,0,2013-05-20 14:40:00
11:01 AM,69.8,66.2,88,30.10,5.0,SSE,3.5,-,N/A,,Overcast,150,2013-05-20 15:01:00
11:08 AM,69.8,66.2,88,30.10,5.0,Calm,Calm,-,N/A,,Overcast,0,2013-05-20 15:08:00
11:31 AM,71.6,66.2,83,30.09,8.0,SSW,3.5,-,N/A,,Overcast,210,2013-05-20 15:31:00
11:43 AM,71.6,66.2,83,30.09,10.0,SW,3.5,-,N/A,,Overcast,220,2013-05-20 15:43:00
11:54 AM,72.0,64.9,78,30.08,10.0,WSW,6.9,-,N/A,,Overcast,240,2013-05-20 15:54:00
12:54 PM,73.9,64.9,73,30.06,10.0,West,5.8,-,N/A,,Overcast,260,2013-05-20 16:54:00
1:20 PM,73.4,64.4,73,30.06,10.0,Calm,Calm,-,N/A,,Overcast,0,2013-05-20 17:20:00
1:54 PM,75.0,64.9,71,30.04,10.0,Calm,Calm,-,N/A,,Overcast,0,2013-05-20 17:54:00
2:54 PM,78.1,66.0,66,30.03,10.0,Calm,Calm,-,N/A,,Mostly Cloudy,0,2013-05-20 18:54:00
3:54 PM,79.0,64.9,62,30.01,10.0,WSW,6.9,-,N/A,,Scattered Clouds,250,2013-05-20 19:54:00
4:54 PM,79.0,64.9,62,29.99,10.0,WSW,4.6,-,N/A,,Scattered Clouds,240,2013-05-20 20:54:00
5:54 PM,80.1,64.0,58,29.99,10.0,WSW,10.4,-,N/A,,Scattered Clouds,250,2013-05-20 21:54:00
6:54 PM,79.0,64.9,62,29.99,10.0,SW,4.6,-,N/A,,Partly Cloudy,230,2013-05-20 22:54:00
7:54 PM,75.9,64.9,69,29.99,10.0,SW,4.6,-,N/A,,Clear,230,2013-05-20 23:54:00
8:54 PM,72.0,66.0,81,29.99,10.0,Calm,Calm,-,N/A,,Clear,0,2013-05-21 00:54:00
10:54 PM,68.0,64.9,90,30.00,9.0,Calm,Calm,-,N/A,,Clear,0,2013-05-21 02:54:00
11:54 PM,66.9,64.9,93,29.99,6.0,Calm,Calm,-,N/A,,Clear,0,2013-05-21 03:54:00